Regional Weather Roundup
Issued by NWS

Home | Current Version | Previous Version | Graphics & Text | Print | Product List | Glossary On
Versions: 1 2 3 4 5 6 7 8 9 10 11 12 13 14 15 16 17 18 19 20 21 22 23 24 25 26 27
000
ASUS45 KCYS 160010
RWRWY

WYOMING REGIONAL WEATHER ROUNDUP
NATIONAL WEATHER SERVICE CHEYENNE WY
600 PM MDT TUE APR 15 2014

NOTE:  "FAIR" INDICATES FEW OR NO CLOUDS BELOW 12,000 FEET
WITH NO SIGNIFICANT WEATHER AND/OR OBSTRUCTIONS TO VISIBILITY.

WYZ001-160100-
YELLOWSTONE NATIONAL PARK

CITY           SKY/WX    TMP DP  RH WIND       PRES   REMARKS
LK YELLOWSTONE   N/A     30  25  81 NW9G20    29.74S WCI  22
6HR MIN TEMP:  29; 6HR MAX TEMP:  38; 6HR PCP:  0.04;

W YELLOWSTONE  NOT AVBL

$$
WYZ002>013-054>058-071-098>099-160100-
NORTHERN WYOMING

CITY           SKY/WX    TMP DP  RH WIND       PRES   REMARKS
JACKSON        LGT SNOW  36  32  87 SW20      29.74R WCI  25
CODY           PTSUNNY   50  28  43 W14G22    29.62S
GREYBULL       CLOUDY    53  32  44 CALM      29.58F
6HR MIN TEMP:  47; 6HR MAX TEMP:  54;

WORLAND        CLOUDY    56  28  34 N7        29.57F
6HR MIN TEMP:  48; 6HR MAX TEMP:  58;

SHERIDAN       CLOUDY    50  31  48 N9        29.61F
6HR MIN TEMP:  50; 6HR MAX TEMP:  63;

BUFFALO        CLOUDY    48  28  46 VRB5      29.62F
6HR MIN TEMP:  48; 6HR MAX TEMP:  59;

GILLETTE       CLOUDY    52  27  38 NW15      29.60S
6HR MIN TEMP:  52; 6HR MAX TEMP:  63;

HULETT         CLOUDY    55  27  33 W9        29.59
NEWCASTLE      FAIR      59  18  20 NW12      29.57

$$
WYZ014>020-022>026-101>103-160100-
CENTRAL WYOMING

CITY           SKY/WX    TMP DP  RH WIND       PRES   REMARKS
BIG PINEY      PTSUNNY   45  21  38 W23G31    29.78F
6HR MIN TEMP:  43; 6HR MAX TEMP:  57;

PINEDALE       CLOUDY    41  30  65 W17G23    29.79S
DUBOIS         FAIR      37  23  56 W12G33    29.67F WCI  30
LANDER         CLOUDY    53  20  27 W31G45    29.61F
6HR MIN TEMP:  53; 6HR MAX TEMP:  62;

RIVERTON       PTSUNNY   54  17  23 W26G38    29.63F
6HR MIN TEMP:  53; 6HR MAX TEMP:  63;

CASPER         CLOUDY    56  22  26 W15       29.60F
6HR MIN TEMP:  49; 6HR MAX TEMP:  60;

DOUGLAS        CLOUDY    55  30  38 W9        29.61F
6HR MIN TEMP:  48; 6HR MAX TEMP:  60;


$$
WYZ021-027>030-104>119-160100-
SOUTHERN WYOMING

CITY           SKY/WX    TMP DP  RH WIND       PRES   REMARKS
EVANSTON       CLOUDY    52  15  23 W30G43    29.84S
6HR MIN TEMP:  52; 6HR MAX TEMP:  57;

KEMMERER       CLOUDY    43  27  52 NW21G29   29.84R
FORT BRIDGER   CLOUDY    53  15  22 W31G43    29.85S
ROCK SPRINGS   CLOUDY    54  11  18 W31G43    29.77S
6HR MIN TEMP:  54; 6HR MAX TEMP:  61;

DIXON          FAIR      56  18  22 SW25G35   29.79F
RAWLINS        CLOUDY    51  14  22 W18       29.72F
6HR MIN TEMP:  45; 6HR MAX TEMP:  57;

SARATOGA       MOCLDY    50  19  29 SW23G36   29.77F
LARAMIE        PTSUNNY   49  18  29 SW25      29.75F
6HR MIN TEMP:  42; 6HR MAX TEMP:  52;

CHEYENNE       PTSUNNY   53  17  24 SW22G29   29.73F
6HR MIN TEMP:  47; 6HR MAX TEMP:  55;

TORRINGTON     PTSUNNY   61  26  26 W8        29.62F
6HR MIN TEMP:  51; 6HR MAX TEMP:  64;

PINE BLUFFS    FAIR      57  19  23 W15       29.70F

$$



USA.gov is the U.S. government's official web portal to all federal, state and local government web resources and services.